Location: Pompeys Pillar
(45.9913°N, 107.9528°W)
Time: 04:33:24
(UTC+00:00)

Tiros 1 - Pass Details

Date: 03 June 2022
Orbit: 629 x 663 km, 48.4° (Epoch: 30 June)

Event Time Altitude Azimuth Distance (km) Brightness Sun altitude
Rises 10:43:55 0° 288° (WNW) 2,926 10.2 -6.3°
Reaches altitude 10° 10:46:23 10° 280° (W) 2,019 9.3 -5.9°
Maximum altitude 10:50:34 34° 215° (SW) 1,049 7.8 -5.4°
Drops below altitude 10° 10:54:47 10° 151° (SSE) 2,028 9.6 -4.8°
Sets 10:57:17 0° 142° (SE) 2,941 10.5 -4.5°
